Regional Weather Roundup
Issued by NWS Sioux Falls, SD

Home | Current Version | Previous Version | Text Only | Print | Product List | Glossary On
Versions: 1 2 3 4 5 6 7 8 9 10 11 12 13 14 15 16 17 18 19 20 21 22 23 24 25 26 27 28 29 30 31 32 33 34 35 36 37 38 39 40 41 42 43 44 45 46 47 48 49 50
000
ASUS43 KFSD 191510
RWRFSD

WEATHER ROUNDUP FOR SE SOUTH DAKOTA/SW MINNESOTA/NW IOWA
NATIONAL WEATHER SERVICE SIOUX FALLS SD
1000 AM CDT THU APR 19 2018

NOTE: "FAIR" INDICATES FEW OR NO CLOUDS BELOW 12,000 FEET WITH NO
SIGNIFICANT WEATHER AND OR OBSTRUCTIONS TO VISIBILITY.


SDZ038>040-050-052>070-191600-
SOUTHEAST SOUTH DAKOTA

CITY           SKY/WX    TMP DP  RH WIND       PRES   REMARKS
BROOKINGS      SUNNY     40  23  50 SE5       30.45
CHAMBERLAIN    MOSUNNY   37  34  90 CALM      30.46R
HURON          SUNNY     36  32  85 SW5       30.46R
MADISON        FAIR      36  32  87 CALM      30.45R
MITCHELL       SUNNY     33  31  92 CALM      30.48R
SIOUX FALLS    MOSUNNY   37  26  64 E3        30.46R
WINNER         FAIR      37  28  70 CALM      30.45R
YANKTON        SUNNY     38  26  62 SE7       30.48R
$$

MNZ071-072-080-081-089-090-097-098-191600-
SOUTHWEST MINNESOTA

CITY           SKY/WX    TMP DP  RH WIND       PRES   REMARKS
FAIRMONT       SUNNY     29  19  66 NW5       30.48R WCI  24
JACKSON        SUNNY     30  19  64 CALM      30.46R
LUVERNE        SUNNY     34  21  60 CALM      30.47R
MARSHALL       SUNNY     33  24  69 CALM      30.48R
MONTEVIDEO     SUNNY     45  19  36 SW6       30.47R
PIPESTONE      SUNNY    N/A N/A N/A SE3       30.44R
REDWOOD FALLS  SUNNY     40  17  39 NW3       30.47R
TRACY          SUNNY     37  19  48 CALM      30.46R
WINDOM           N/A     34  12  40 CALM      30.46R
WORTHINGTON    SUNNY     27  19  72 NW3       30.47R
$$

IAZ001>003-012>014-020>022-031-032-NEZ013-014-SDZ071-191600-
NORTHWEST IOWA

CITY           SKY/WX    TMP DP  RH WIND       PRES   REMARKS
CHEROKEE       SUNNY     36  22  58 NE5       30.46S
DENISON        SUNNY     37  30  75 NE8       30.47R
ESTHERVILLE    SUNNY     29  17  61 N7        30.46R WCI  22
LE MARS        SUNNY     32  23  69 N6        30.47R WCI  26
ORANGE CITY    SUNNY     34  21  60 E3        30.46R
SHELDON        SUNNY     32  23  69 NE8       30.45R WCI  25
SIOUX CITY     SUNNY     39  26  59 SE3       30.47R
SPENCER        SUNNY     32  20  61 CALM      30.47R
STORM LAKE     SUNNY     32  21  64 N7        30.45S WCI  26
$$

ABBREVIATIONS USED IN REMARKS
   TC - TEMPERATURE IN CELSIUS
  WCI - WIND CHILL INDEX
   HX - HEAT INDEX
  VSB - VISIBILITY





USA.gov is the U.S. government's official web portal to all federal, state and local government web resources and services.